Humidity-temperature Sensor

Selected Measurement Type: Relative Humidity

 
Relative Humidity [%]     6 entries per hour
Showing data from 5/18/2022 (15:00:00 Z) to 5/17/2022 (00:01:00 Z)
Previous Next [ Day | 3-Days | 7-Days ]
First Last
Prev [ Day | 3-Days | 7-Days ] Next
First Last

Start Time:     :
End Time:     :     
Time (in GMT) :00 :50 :40 :30 :20 :10
Previous Next [ Day | 3-Days | 7-Days ]
First Last
Prev [ Day | 3-Days | 7-Days ] Next
First Last


123 => good data
MM => data is determined as missing
-- => data not received/configured
Back to Top Back to Top
5/18/2022 15:00 to 14:10 88.13 88.07 88.40 88.40 88.64 88.52
5/18/2022 14:00 to 13:10 88.56 88.70 88.60 88.21 88.44 88.60
5/18/2022 13:00 to 12:10 89.81 90.66 91.37 92.46 92.67 91.99
5/18/2022 12:00 to 11:10 91.23 90.37 90.39 89.83 89.53 89.57
5/18/2022 11:00 to 10:10 89.96 90.27 90.96 90.98 90.86 90.88
5/18/2022 10:00 to 9:10 91.21 91.52 91.66 91.09 91.40 92.18
5/18/2022 09:00 to 8:10 93.10 93.72 93.84 93.00 92.75 93.22
5/18/2022 08:00 to 7:10 93.43 93.33 92.90 92.75 93.00 93.16
5/18/2022 07:00 to 6:10 93.33 93.47 93.70 93.86 93.64 92.96
5/18/2022 06:00 to 5:10 92.18 90.74 89.85 88.81 87.61 87.68
5/18/2022 05:00 to 4:10 88.29 88.68 88.93 89.36 89.50 90.20
5/18/2022 04:00 to 3:10 90.74 91.81 92.46 92.77 93.10 92.81
5/18/2022 03:00 to 2:10 93.04 92.98 92.90 92.67 92.24 91.74
5/18/2022 02:00 to 1:10 92.30 92.96 93.53 94.00 94.52 95.05
5/18/2022 01:00 to 0:10 95.14 95.07 94.66 94.50 94.42 94.07
5/18/2022 00:00 to 23:10 94.50 94.62 94.31 93.74 93.35 93.35
5/17/2022 23:00 to 22:10 92.69 92.48 91.93 91.74 92.38 92.85
5/17/2022 22:00 to 21:10 93.04 93.47 93.61 93.51 93.53 93.37
5/17/2022 21:00 to 20:10 93.24 93.12 93.27 93.35 93.20 93.14
5/17/2022 20:00 to 19:10 93.04 92.71 91.97 92.11 92.36 92.32
5/17/2022 19:00 to 18:10 92.32 92.11 91.40 91.33 91.46 91.25
5/17/2022 18:00 to 17:10 91.31 91.09 90.84 90.68 91.37 92.05
5/17/2022 17:00 to 16:10 92.57 93.20 93.33 93.39 93.45 93.45
5/17/2022 16:00 to 15:10 93.39 93.43 93.20 93.18 93.37 93.47
5/17/2022 15:00 to 14:10 93.59 93.70 93.78 93.45 92.69 91.70
5/17/2022 14:00 to 13:10 91.44 91.21 91.13 90.86 90.16 89.98
5/17/2022 13:00 to 12:10 90.96 92.07 92.53 92.73 92.83 92.81
5/17/2022 12:00 to 11:10 92.55 92.16 92.03 91.60 91.42 91.54
5/17/2022 11:00 to 10:10 91.62 92.22 92.92 93.70 93.94 94.27
5/17/2022 10:00 to 9:10 94.46 94.62 94.72 94.79 95.32 95.71
5/17/2022 09:00 to 8:10 96.14 96.35 96.08 96.29 96.31 96.37
5/17/2022 08:00 to 7:10 96.22 96.00 95.98 95.53 95.14 94.58
5/17/2022 07:00 to 6:10 94.23 93.80 93.31 93.33 93.53 93.74
5/17/2022 06:00 to 5:10 93.22 92.79 92.22 92.32 92.75 93.00
5/17/2022 05:00 to 4:10 -- -- -- -- -- --
5/17/2022 04:00 to 3:10 94.72 94.85 94.48 94.35 94.13 94.00
5/17/2022 03:00 to 2:10 93.98 94.13 94.03 94.07 94.15 94.23
5/17/2022 02:00 to 1:10 94.29 94.50 94.54 94.93 95.07 95.30
5/17/2022 01:00 to 0:10 95.71 95.96 96.14 96.18 96.27 96.29